Train No Train Name From To Distance Stops avg_speed (km/hr)
13008 Udyan Abha Toofan Express Shri Ganganagar Howrah Junction 1980 105 43
A Train's "Departure" Station, "Arrival" Station and "Distance" may vary. Although we have verified some of this data from enquiry.indianrail.gov.in
Train No Start Date (yyyy-mm-dd) Status Delay Time Source
13008 2017-01-14 Late 14 hours 55 minutes Source
13008 2017-01-15 Late 14 hours 50 minutes Source
13008 2017-01-16 Late 12 hours 15 minutes Source
13008 2017-01-19 Late 14 hours 53 minutes Source
13008 2017-01-20 Late 14 hours 15 minutes Source
13008 2017-01-26 Late 11 hours 49 minutes Source
13008 2017-02-01 Late 14 hours 52 minutes Source
13008 2017-02-04 Late 13 hours 20 minutes Source
13008 2017-02-06 Late 11 hours 35 minutes Source
13008 2017-02-08 Late 11 hours 00 minutes Source
13008 2017-02-12 Late 10 hours 40 minutes Source
13008 2017-02-17 Late 13 hours 10 minutes Source
13008 2017-02-19 Late 11 hours 00 minutes Source
13008 2017-02-20 Late 13 hours 59 minutes Source
13008 2017-02-27 Late 10 hours 22 minutes Source
13008 2017-02-28 Late 14 hours 36 minutes Source
13008 2017-03-03 Late 13 hours 03 minutes Source
13008 2017-03-04 Late 11 hours 55 minutes Source
13008 2017-03-05 Late 12 hours 04 minutes Source
13008 2017-03-06 Late 10 hours 30 minutes Source
13008 2017-03-10 Late 14 hours 49 minutes Source
13008 2017-04-02 Late 10 hours 30 minutes Source
13008 2017-04-12 Late 10 hours 25 minutes Source
Page 1 of 1, showing 23 records out of 23 total